This is the latest recevied weather packets stored in our database for station/object VA3XLT-1. If no packets are shown the sender has not sent any weather packets the latest 10 day(s).
| Time | Temp. | Humidity | Pressure | Rain* | Wind** | Luminosity | Snow |
|---|---|---|---|---|---|---|---|
| 1778007157 | 16.11° C | 62% | 1007.9 hPa | 0 mm | - | - | - |
| 1778006857 | 16.11° C | 64% | 1007.8 hPa | 0 mm | - | - | - |
| 1778006557 | 16.67° C | 62% | 1007.7 hPa | 0 mm | - | - | - |
| 1778006257 | 17.22° C | 62% | 1007.6 hPa | 0 mm | - | - | - |
| 1778005957 | 17.22° C | 60% | 1007.5 hPa | 0 mm | - | - | - |
| 1778005657 | 17.22° C | 63% | 1007.7 hPa | 0 mm | - | - | - |
| 1778005357 | 17.22° C | 59% | 1007.7 hPa | 0 mm | - | - | - |
| 1778005057 | 17.22° C | 64% | 1007.4 hPa | 0 mm | - | - | - |
| 1778004757 | 16.67° C | 69% | 1007.1 hPa | 0 mm | - | - | - |
| 1778004457 | 16.11° C | 74% | 1007.3 hPa | 0 mm | - | - | - |
| 1778004157 | 16.11° C | 71% | 1007.4 hPa | 0 mm | - | - | - |
| 1778003857 | 16.11° C | 68% | 1007.3 hPa | 0 mm | - | - | - |
| 1778003557 | 16.11° C | 67% | 1007.2 hPa | 0 mm | - | - | - |
| 1778003257 | 16.11° C | 67% | 1007.3 hPa | 0 mm | - | - | - |
| 1778002957 | 16.11° C | 61% | 1007.2 hPa | 0 mm | - | - | - |
| 1778002657 | 16.11° C | 63% | 1007.2 hPa | 0 mm | - | - | - |
| 1778002357 | 16.11° C | 63% | 1007.3 hPa | 0 mm | - | - | - |
| 1778002057 | 16.11° C | 61% | 1006.9 hPa | 0 mm | - | - | - |
| 1778001757 | 16.67° C | 61% | 1007 hPa | 0 mm | - | - | - |
| 1778001457 | 16.67° C | 62% | 1007 hPa | 0 mm | - | - | - |
| 1778001157 | 16.67° C | 55% | 1007 hPa | 0 mm | - | - | - |
| 1778000857 | 16.67° C | 61% | 1007.2 hPa | 0 mm | - | - | - |
| 1778000557 | 16.67° C | 62% | 1007.3 hPa | 0 mm | - | - | - |
| 1777999957 | 17.22° C | 62% | 1007.3 hPa | 0 mm | - | - | - |
| 1777999657 | 16.67° C | 59% | 1007.3 hPa | 0 mm | - | - | - |
* Rain latest hour (hover to see other rain measurements)
** Current wind speed in m/s (hover to see current wind gust speed)